Time,TemperatureF,DewpointF,PressureIn,WindDirection,WindDirectionDegrees,WindSpeedMPH,WindSpeedGustMPH,Humidity,HourlyPrecipIn,Conditions,Clouds,dailyrainin,SoftwareType,DateUTC
2013-02-10 00:02:00,39.3,39.0,30.34,NW,309,0.0,0.0,97,0.00,,,0.00,weatherlink.com 1.10,2013-02-10 08:02:00,
2013-02-10 00:17:00,39.2,39.0,30.34,ENE,65,0.0,0.0,97,0.00,,,0.00,weatherlink.com 1.10,2013-02-10 08:17:00,
2013-02-10 00:33:00,39.5,39.0,30.34,ESE,105,0.0,0.0,97,0.00,,,0.00,weatherlink.com 1.10,2013-02-10 08:33:00,
2013-02-10 00:48:00,39.7,39.0,30.34,WNW,303,0.0,0.0,96,0.00,,,0.00,weatherlink.com 1.10,2013-02-10 08:48:00,
2013-02-10 01:03:00,39.9,39.0,30.34,WNW,295,0.0,0.0,95,0.00,,,0.00,weatherlink.com 1.10,2013-02-10 09:03:00,
2013-02-10 01:18:00,39.9,38.0,30.34,WNW,293,0.0,0.0,94,0.00,,,0.00,weatherlink.com 1.10,2013-02-10 09:18:00,
2013-02-10 01:33:00,39.8,38.0,30.34,NE,54,0.0,2.0,94,0.00,,,0.00,weatherlink.com 1.10,2013-02-10 09:33:00,
2013-02-10 01:48:00,39.7,38.0,30.34,WNW,292,0.0,3.0,94,0.00,,,0.00,weatherlink.com 1.10,2013-02-10 09:48:00,
2013-02-10 02:03:00,39.6,38.0,30.34,WNW,289,0.0,3.0,94,0.00,,,0.00,weatherlink.com 1.10,2013-02-10 10:03:00,
2013-02-10 02:18:00,39.6,38.0,30.35,WNW,302,2.0,4.0,94,0.00,,,0.00,weatherlink.com 1.10,2013-02-10 10:18:00,
2013-02-10 02:33:00,39.3,38.0,30.35,NW,305,1.0,2.0,94,0.00,,,0.00,weatherlink.com 1.10,2013-02-10 10:33:00,
2013-02-10 02:48:00,39.0,38.0,30.34,WNW,288,1.0,2.0,94,0.00,,,0.00,weatherlink.com 1.10,2013-02-10 10:48:00,
2013-02-10 03:03:00,39.0,38.0,30.34,West,281,0.0,2.0,95,0.00,,,0.00,weatherlink.com 1.10,2013-02-10 11:03:00,
2013-02-10 03:18:00,39.0,38.0,30.34,West,277,0.0,1.0,95,0.00,,,0.00,weatherlink.com 1.10,2013-02-10 11:18:00,
2013-02-10 03:33:00,39.0,38.0,30.34,West,263,0.0,1.0,95,0.00,,,0.00,weatherlink.com 1.10,2013-02-10 11:33:00,
2013-02-10 03:48:00,39.0,38.0,30.34,WNW,289,0.0,0.0,95,0.00,,,0.00,weatherlink.com 1.10,2013-02-10 11:48:00,
2013-02-10 04:03:00,39.2,38.0,30.35,NW,319,2.0,3.0,95,0.00,,,0.00,weatherlink.com 1.10,2013-02-10 12:03:00,
2013-02-10 04:18:00,39.3,38.0,30.35,WNW,288,0.0,2.0,95,0.00,,,0.00,weatherlink.com 1.10,2013-02-10 12:18:00,
2013-02-10 04:33:00,39.3,38.0,30.35,WNW,286,0.0,0.0,96,0.00,,,0.00,weatherlink.com 1.10,2013-02-10 12:33:00,
2013-02-10 04:48:00,39.2,38.0,30.35,WNW,293,0.0,3.0,96,0.00,,,0.00,weatherlink.com 1.10,2013-02-10 12:48:00,
2013-02-10 05:03:00,39.3,38.0,30.35,WNW,289,0.0,3.0,96,0.00,,,0.00,weatherlink.com 1.10,2013-02-10 13:03:00,
2013-02-10 05:18:00,39.3,38.0,30.36,WNW,284,0.0,1.0,96,0.00,,,0.00,weatherlink.com 1.10,2013-02-10 13:18:00,
2013-02-10 05:33:00,39.3,38.0,30.35,West,279,1.0,4.0,96,0.00,,,0.00,weatherlink.com 1.10,2013-02-10 13:33:00,
2013-02-10 05:48:00,39.4,38.0,30.35,WNW,287,0.0,4.0,96,0.00,,,0.00,weatherlink.com 1.10,2013-02-10 13:48:00,
2013-02-10 06:03:00,39.4,38.0,30.35,West,269,0.0,1.0,96,0.00,,,0.00,weatherlink.com 1.10,2013-02-10 14:03:00,
2013-02-10 06:18:00,39.5,38.0,30.35,WNW,286,0.0,3.0,95,0.00,,,0.00,weatherlink.com 1.10,2013-02-10 14:18:00,
2013-02-10 06:33:00,39.6,38.0,30.36,NW,305,0.0,4.0,95,0.00,,,0.00,weatherlink.com 1.10,2013-02-10 14:33:00,
2013-02-10 06:48:00,39.7,38.0,30.35,WNW,283,0.0,3.0,94,0.00,,,0.00,weatherlink.com 1.10,2013-02-10 14:48:00,
2013-02-10 07:03:00,39.7,38.0,30.36,WNW,298,1.0,3.0,94,0.00,,,0.00,weatherlink.com 1.10,2013-02-10 15:03:00,
2013-02-10 07:18:00,39.6,38.0,30.36,WNW,298,0.0,1.0,95,0.00,,,0.00,weatherlink.com 1.10,2013-02-10 15:18:00,
2013-02-10 07:33:00,39.6,38.0,30.36,WNW,293,0.0,3.0,95,0.00,,,0.00,weatherlink.com 1.10,2013-02-10 15:33:00,
2013-02-10 07:48:00,39.7,38.0,30.36,NW,314,2.0,3.0,95,0.00,,,0.00,weatherlink.com 1.10,2013-02-10 15:48:00,
2013-02-10 08:03:00,39.7,38.0,30.37,WSW,257,0.0,3.0,95,0.00,,,0.00,weatherlink.com 1.10,2013-02-10 16:03:00,
2013-02-10 08:19:00,39.8,39.0,30.37,North,10,0.0,3.0,95,0.00,,,0.00,weatherlink.com 1.10,2013-02-10 16:19:00,
2013-02-10 08:34:00,39.9,39.0,30.37,WNW,300,0.0,3.0,95,0.00,,,0.00,weatherlink.com 1.10,2013-02-10 16:34:00,
2013-02-10 08:48:00,40.1,39.0,30.37,NW,315,2.0,3.0,94,0.00,,,0.00,weatherlink.com 1.10,2013-02-10 16:48:00,
2013-02-10 09:03:00,40.3,39.0,30.37,NW,312,1.0,3.0,94,0.00,,,0.00,weatherlink.com 1.10,2013-02-10 17:03:00,
2013-02-10 09:19:00,40.6,39.0,30.37,East,82,0.0,4.0,94,0.00,,,0.00,weatherlink.com 1.10,2013-02-10 17:19:00,
2013-02-10 09:33:00,40.9,39.0,30.37,WNW,295,0.0,4.0,92,0.00,,,0.00,weatherlink.com 1.10,2013-02-10 17:33:00,
2013-02-10 09:49:00,41.2,39.0,30.37,West,261,0.0,3.0,92,0.00,,,0.00,weatherlink.com 1.10,2013-02-10 17:49:00,
2013-02-10 10:03:00,41.6,39.0,30.38,WNW,300,3.0,3.0,91,0.00,,,0.00,weatherlink.com 1.10,2013-02-10 18:03:00,
2013-02-10 10:18:00,41.9,39.0,30.38,West,279,0.0,4.0,89,0.00,,,0.00,weatherlink.com 1.10,2013-02-10 18:18:00,
2013-02-10 10:33:00,42.2,38.0,30.38,NE,43,0.0,4.0,84,0.00,,,0.00,weatherlink.com 1.10,2013-02-10 18:33:00,
2013-02-10 10:48:00,42.4,38.0,30.38,WSW,258,4.0,5.0,83,0.00,,,0.00,weatherlink.com 1.10,2013-02-10 18:48:00,
2013-02-10 11:04:00,42.6,38.0,30.38,West,281,1.0,4.0,84,0.00,,,0.00,weatherlink.com 1.10,2013-02-10 19:04:00,
2013-02-10 11:19:00,42.9,37.0,30.38,WNW,293,2.0,5.0,81,0.00,,,0.00,weatherlink.com 1.10,2013-02-10 19:19:00,
2013-02-10 11:34:00,43.1,37.0,30.37,East,79,0.0,6.0,80,0.00,,,0.00,weatherlink.com 1.10,2013-02-10 19:34:00,
2013-02-10 11:49:00,43.2,37.0,30.37,NE,48,0.0,3.0,78,0.00,,,0.00,weatherlink.com 1.10,2013-02-10 19:49:00,
2013-02-10 12:04:00,42.9,37.0,30.37,WNW,303,0.0,6.0,80,0.00,,,0.00,weatherlink.com 1.10,2013-02-10 20:04:00,
2013-02-10 12:19:00,43.0,37.0,30.37,ENE,60,0.0,2.0,80,0.00,,,0.00,weatherlink.com 1.10,2013-02-10 20:19:00,
2013-02-10 12:34:00,43.2,38.0,30.36,WNW,291,2.0,3.0,81,0.00,,,0.00,weatherlink.com 1.10,2013-02-10 20:34:00,
2013-02-10 12:49:00,43.3,37.0,30.36,East,81,0.0,4.0,79,0.00,,,0.00,weatherlink.com 1.10,2013-02-10 20:49:00,
2013-02-10 13:04:00,43.6,37.0,30.36,West,272,0.0,4.0,78,0.00,,,0.00,weatherlink.com 1.10,2013-02-10 21:04:00,
2013-02-10 13:19:00,43.7,37.0,30.36,NE,51,1.0,4.0,77,0.00,,,0.00,weatherlink.com 1.10,2013-02-10 21:19:00,
2013-02-10 13:34:00,43.7,37.0,30.35,East,86,0.0,4.0,76,0.00,,,0.00,weatherlink.com 1.10,2013-02-10 21:34:00,
2013-02-10 13:49:00,44.6,37.0,30.35,North,1,0.0,5.0,76,0.00,,,0.00,weatherlink.com 1.10,2013-02-10 21:49:00,
2013-02-10 14:04:00,44.4,37.0,30.35,NNE,22,0.0,7.0,74,0.00,,,0.00,weatherlink.com 1.10,2013-02-10 22:04:00,
2013-02-10 14:19:00,44.5,37.0,30.34,ENE,62,3.0,6.0,74,0.00,,,0.00,weatherlink.com 1.10,2013-02-10 22:19:00,
2013-02-10 14:34:00,44.4,37.0,30.35,WNW,287,1.0,3.0,75,0.00,,,0.00,weatherlink.com 1.10,2013-02-10 22:34:00,
2013-02-10 14:49:00,44.2,37.0,30.35,WNW,283,0.0,4.0,76,0.00,,,0.00,weatherlink.com 1.10,2013-02-10 22:49:00,
2013-02-10 15:04:00,43.9,37.0,30.34,NW,322,0.0,4.0,77,0.00,,,0.00,weatherlink.com 1.10,2013-02-10 23:04:00,
2013-02-10 15:19:00,43.9,37.0,30.34,WNW,302,0.0,4.0,78,0.00,,,0.00,weatherlink.com 1.10,2013-02-10 23:19:00,
2013-02-10 15:34:00,43.7,37.0,30.34,WNW,301,0.0,4.0,78,0.00,,,0.00,weatherlink.com 1.10,2013-02-10 23:34:00,
2013-02-10 15:49:00,43.5,38.0,30.35,East,85,0.0,3.0,80,0.00,,,0.00,weatherlink.com 1.10,2013-02-10 23:49:00,
2013-02-10 16:04:00,43.3,38.0,30.35,WNW,296,1.0,5.0,81,0.00,,,0.00,weatherlink.com 1.10,2013-02-11 00:04:00,
2013-02-10 16:19:00,43.3,38.0,30.34,NW,305,2.0,6.0,81,0.00,,,0.00,weatherlink.com 1.10,2013-02-11 00:19:00,
2013-02-10 16:34:00,43.1,38.0,30.34,WSW,237,1.0,4.0,81,0.00,,,0.00,weatherlink.com 1.10,2013-02-11 00:34:00,
2013-02-10 16:49:00,42.9,38.0,30.35,NW,316,2.0,4.0,82,0.00,,,0.00,weatherlink.com 1.10,2013-02-11 00:49:00,
2013-02-10 17:06:00,42.8,38.0,30.34,WNW,300,0.0,2.0,83,0.00,,,0.00,weatherlink.com 1.10,2013-02-11 01:06:00,
2013-02-10 17:19:00,42.6,38.0,30.34,WNW,298,0.0,3.0,84,0.00,,,0.00,weatherlink.com 1.10,2013-02-11 01:19:00,
2013-02-10 17:34:00,42.4,38.0,30.34,WNW,286,0.0,3.0,85,0.00,,,0.00,weatherlink.com 1.10,2013-02-11 01:34:00,
2013-02-10 17:49:00,42.2,38.0,30.34,NW,308,0.0,0.0,85,0.00,,,0.00,weatherlink.com 1.10,2013-02-11 01:49:00,
2013-02-10 18:05:00,41.9,38.0,30.34,NW,308,1.0,2.0,86,0.00,,,0.00,weatherlink.com 1.10,2013-02-11 02:05:00,
2013-02-10 18:20:00,41.8,38.0,30.35,West,278,0.0,3.0,86,0.00,,,0.00,weatherlink.com 1.10,2013-02-11 02:20:00,
2013-02-10 18:34:00,41.6,38.0,30.34,NW,310,0.0,3.0,87,0.00,,,0.00,weatherlink.com 1.10,2013-02-11 02:34:00,
2013-02-10 18:49:00,41.5,38.0,30.35,NW,309,0.0,2.0,87,0.00,,,0.00,weatherlink.com 1.10,2013-02-11 02:49:00,
2013-02-10 19:04:00,41.3,38.0,30.34,WNW,300,0.0,1.0,87,0.00,,,0.00,weatherlink.com 1.10,2013-02-11 03:04:00,
2013-02-10 19:20:00,41.0,37.0,30.35,West,275,0.0,2.0,87,0.00,,,0.00,weatherlink.com 1.10,2013-02-11 03:20:00,
2013-02-10 19:35:00,40.7,38.0,30.34,WNW,285,0.0,0.0,88,0.00,,,0.00,weatherlink.com 1.10,2013-02-11 03:35:00,
2013-02-10 19:49:00,40.0,37.0,30.35,West,264,0.0,0.0,89,0.00,,,0.00,weatherlink.com 1.10,2013-02-11 03:49:00,
2013-02-10 20:04:00,39.8,37.0,30.35,WNW,283,0.0,0.0,89,0.00,,,0.00,weatherlink.com 1.10,2013-02-11 04:04:00,
2013-02-10 20:20:00,39.8,37.0,30.34,West,277,0.0,0.0,89,0.00,,,0.00,weatherlink.com 1.10,2013-02-11 04:20:00,
2013-02-10 20:34:00,39.1,37.0,30.34,West,277,0.0,0.0,91,0.00,,,0.00,weatherlink.com 1.10,2013-02-11 04:34:00,
2013-02-10 20:49:00,38.7,37.0,30.35,West,277,0.0,0.0,92,0.00,,,0.00,weatherlink.com 1.10,2013-02-11 04:49:00,
2013-02-10 21:05:00,39.7,37.0,30.35,WNW,296,0.0,1.0,89,0.00,,,0.00,weatherlink.com 1.10,2013-02-11 05:05:00,
2013-02-10 21:19:00,39.7,37.0,30.34,WNW,295,0.0,0.0,90,0.00,,,0.00,weatherlink.com 1.10,2013-02-11 05:19:00,
2013-02-10 21:34:00,39.3,37.0,30.34,WNW,295,0.0,0.0,92,0.00,,,0.00,weatherlink.com 1.10,2013-02-11 05:34:00,
2013-02-10 21:49:00,39.4,37.0,30.34,ENE,57,0.0,0.0,91,0.00,,,0.00,weatherlink.com 1.10,2013-02-11 05:49:00,
2013-02-10 22:05:00,39.2,37.0,30.33,NE,56,0.0,0.0,93,0.00,,,0.00,weatherlink.com 1.10,2013-02-11 06:05:00,
2013-02-10 22:20:00,38.9,37.0,30.33,NE,56,0.0,0.0,93,0.00,,,0.00,weatherlink.com 1.10,2013-02-11 06:20:00,
2013-02-10 22:35:00,39.5,37.0,30.34,WNW,285,0.0,2.0,90,0.00,,,0.00,weatherlink.com 1.10,2013-02-11 06:35:00,
2013-02-10 22:50:00,39.8,37.0,30.33,West,266,0.0,0.0,89,0.00,,,0.00,weatherlink.com 1.10,2013-02-11 06:50:00,
2013-02-10 23:05:00,39.7,37.0,30.33,West,266,0.0,0.0,90,0.00,,,0.00,weatherlink.com 1.10,2013-02-11 07:05:00,
2013-02-10 23:20:00,39.5,37.0,30.33,West,266,0.0,0.0,91,0.00,,,0.00,weatherlink.com 1.10,2013-02-11 07:20:00,
2013-02-10 23:35:00,39.2,37.0,30.34,West,266,0.0,0.0,91,0.00,,,0.00,weatherlink.com 1.10,2013-02-11 07:35:00,
2013-02-10 23:50:00,39.1,37.0,30.34,West,266,0.0,0.0,93,0.00,,,0.00,weatherlink.com 1.10,2013-02-11 07:50:00,